Home   Weather   Plauen   Past weeks

Flag for Germany Past Weather in Plauen, Saxony, Germany — Yesterday and Last 2 Weeks

Now
45 °F

Passing clouds.


Feels Like: 42 °F
Forecast: 40 / 44 °F
Wind: 5 mph from Southeast

Location: Karlovy Vary Airport

Current Time: Feb 28, 2017 at 12:02:20 am

Latest Report: Feb 27, 2017 at 11:00 pm


Visibility: N/A

Pressure: 29.50 "Hg

Humidity: 49%

Dew Point: 27 °F

Location of PlauenLocation

Past Weather in Plauen — Graph

°F

Plauen Temperature Yesterday

Maximum temperature yesterday: 54 °F (at 2:00 pm)
Minimum temperature yesterday: 28 °F (at 1:00 am)
Average temperature yesterday: 44 °F

High & Low Weather Summary for the Past Weeks

 TemperatureHumidityPressure
High54 °F (Feb 27, 2:00 pm)100% (Feb 16, 6:00 am)30.54 "Hg (Feb 16, 6:00 am)
Low21 °F (Feb 14, 7:39 am)20% (Feb 15, 3:40 pm)29.30 "Hg (Feb 23, 7:30 pm)
Average37 °F75%30.06 "Hg
* Reported Feb 12 11:00 pm — Feb 27 11:00 pm, Plauen, Weather by CustomWeather, © 2017

Note: Actual official high and low records may vary slightly from our data, if they occured in-between our weather recording intervals... More about our weather records

Advertising

Plauen Weather History for the Previous 24 Hours

Scroll right to see more
 ConditionsComfort  
Time TempWeatherWind HumidityBarometerVisibility
11:00 pm
Mon, Feb 27
45 °FPassing clouds.5 mph49%29.50 "HgN/A
10:00 pm45 °FClear.3 mph49%29.50 "Hg10 mi
9:00 pm45 °FPassing clouds.3 mph49%29.53 "HgN/A
8:00 pm46 °FClear.2 mph50%29.53 "Hg10 mi
7:30 pm45 °FPassing clouds.3 mph57%29.56 "HgN/A
7:00 pm46 °FPassing clouds.5 mph53%29.56 "HgN/A
6:30 pm46 °FPassing clouds.3 mph57%29.56 "HgN/A
6:00 pm48 °FPassing clouds.3 mph54%29.56 "HgN/A
5:30 pm50 °FPassing clouds.5 mph50%29.56 "HgN/A
5:00 pm52 °FPassing clouds.6 mph47%29.59 "HgN/A
4:30 pm54 °FPassing clouds.5 mph44%29.59 "HgN/A
4:00 pm54 °FPassing clouds.8 mph44%29.62 "HgN/A
3:30 pm54 °FPassing clouds.7 mph44%29.62 "HgN/A
3:00 pm52 °FPassing clouds.6 mph44%29.65 "HgN/A
2:30 pm54 °FPassing clouds.7 mph44%29.65 "HgN/A
2:00 pm54 °FPassing clouds.8 mph44%29.68 "HgN/A
1:30 pm52 °FPassing clouds.7 mph47%29.71 "HgN/A
1:00 pm52 °FPassing clouds.8 mph50%29.71 "HgN/A
12:30 pm50 °FPassing clouds.8 mph54%29.74 "HgN/A
12:00 pm50 °FPassing clouds.7 mph58%29.74 "HgN/A
11:30 am48 °FPassing clouds.6 mph62%29.77 "HgN/A
11:00 am48 °FPassing clouds.7 mph62%29.80 "HgN/A
10:30 am45 °FScattered clouds.3 mph66%29.80 "HgN/A
10:00 am45 °FPartly sunny.5 mph66%29.80 "HgN/A
9:30 am43 °FOvercast.1 mph66%29.83 "HgN/A
9:00 am41 °FOvercast.2 mph70%29.83 "HgN/A
8:30 am39 °FPartly sunny.3 mph70%29.83 "HgN/A
8:00 am37 °FPartly sunny.2 mph75%29.83 "HgN/A
7:30 am37 °FPartly sunny.1 mph75%29.83 "HgN/A
7:00 am37 °FPartly sunny.3 mph75%29.83 "HgN/A
6:00 am37 °FPassing clouds.2 mph75%29.86 "HgN/A
5:00 am36 °FOvercast.3 mph81%29.86 "HgN/A
4:00 am34 °FOvercast.3 mph81%29.89 "HgN/A
3:00 am32 °FPassing clouds.5 mph87%29.89 "HgN/A
2:00 am32 °FClear.1 mph87%29.92 "Hg10 mi
1:00 am28 °FClear.3 mph86%29.92 "Hg10 mi
12:00 am32 °FClear.2 mph87%29.92 "Hg10 mi
Weather by CustomWeather, © 2017

See weather overviewHow to use our weather pages